• In Uzbekistan
  • List of Countries
  • For 7 days
  • Water Temperature
  • Satellite Maps
  • Weather Map
  • Weather Widgets
  • user-avatar
    Login

    Hourly Weather Kapuvar

    Today, 18 July, Wednesday

    Time Temperature Precipitation Wind Pressure Humidity
    00:00 +20°C° 0.2 mm 3 mps 747 mmHg 76%
    01:00 +19°C° 0 mm 3 mps 747 mmHg 82%
    02:00 +19°C° 0.1 mm 4 mps 747 mmHg 81%
    03:00 +19°C° 0.1 mm 4 mps 747 mmHg 81%
    04:00 +19°C° 0.1 mm 4 mps 747 mmHg 80%
    05:00 +20°C° 0 mm 5 mps 747 mmHg 76%
    06:00 +21°C° 0 mm 6 mps 747 mmHg 71%
    07:00 +22°C° 0 mm 6 mps 747 mmHg 67%
    08:00 +23°C° 0 mm 7 mps 747 mmHg 61%
    09:00 +26°C° 0 mm 8 mps 747 mmHg 54%
    10:00 +27°C° 0 mm 9 mps 748 mmHg 48%
    11:00 +27°C° 0 mm 9 mps 748 mmHg 47%
    12:00 +28°C° 0 mm 9 mps 748 mmHg 47%
    13:00 +28°C° 0 mm 9 mps 748 mmHg 47%
    14:00 +27°C° 0.1 mm 8 mps 748 mmHg 51%
    15:00 +26°C° 0.1 mm 8 mps 748 mmHg 56%
    16:00 +24°C° 0.1 mm 7 mps 748 mmHg 61%
    17:00 +23°C° 0.1 mm 7 mps 748 mmHg 63%
    18:00 +23°C° 0.1 mm 6 mps 748 mmHg 64%
    19:00 +22°C° 0.1 mm 6 mps 748 mmHg 66%
    20:00 +22°C° 0.1 mm 6 mps 748 mmHg 67%
    21:00 +22°C° 0.1 mm 6 mps 748 mmHg 68%
    22:00 +21°C° 0.1 mm 6 mps 749 mmHg 69%
    23:00 +21°C° 0.1 mm 6 mps 749 mmHg 68%

    Tomorrow, 19 July, Thursday

    Time Temperature Precipitation Wind Pressure Humidity
    00:00 +21°C° 0.1 mm 6 mps 749 mmHg 68%
    01:00 +21°C° 0.1 mm 6 mps 749 mmHg 68%
    02:00 +21°C° 0 mm 6 mps 749 mmHg 67%
    03:00 +21°C° 0 mm 6 mps 749 mmHg 66%
    04:00 +21°C° 0 mm 6 mps 749 mmHg 65%
    05:00 +21°C° 0 mm 7 mps 749 mmHg 64%
    06:00 +22°C° 0 mm 7 mps 749 mmHg 63%
    07:00 +22°C° 0 mm 8 mps 749 mmHg 61%
    08:00 +24°C° 0 mm 8 mps 750 mmHg 57%
    09:00 +26°C° 0 mm 8 mps 750 mmHg 53%
    10:00 +28°C° 0 mm 8 mps 750 mmHg 49%
    11:00 +28°C° 0 mm 8 mps 750 mmHg 47%
    12:00 +29°C° 0 mm 8 mps 749 mmHg 45%
    13:00 +31°C° 0 mm 8 mps 749 mmHg 42%
    14:00 +30°C° 0 mm 7 mps 749 mmHg 43%
    15:00 +29°C° 0 mm 7 mps 749 mmHg 44%
    16:00 +29°C° 0 mm 7 mps 749 mmHg 45%
    17:00 +28°C° 0 mm 6 mps 749 mmHg 50%
    18:00 +27°C° 0 mm 5 mps 749 mmHg 55%
    19:00 +26°C° 0 mm 4 mps 750 mmHg 60%
    20:00 +23°C° 0 mm 4 mps 750 mmHg 65%
    21:00 +22°C° 0 mm 3 mps 750 mmHg 69%
    22:00 +21°C° 0 mm 3 mps 750 mmHg 73%
    23:00 +20°C° 0 mm 3 mps 750 mmHg 74%

    Day after tomorrow, 20 July, Friday

    Time Temperature Precipitation Wind Pressure Humidity
    00:00 +20°C° 0 mm 3 mps 750 mmHg 74%
    01:00 +19°C° 0 mm 3 mps 750 mmHg 74%
    02:00 +19°C° 0 mm 3 mps 750 mmHg 75%
    03:00 +18°C° 0 mm 3 mps 750 mmHg 77%
    04:00 +18°C° 0 mm 3 mps 750 mmHg 78%
    05:00 +19°C° 0 mm 4 mps 750 mmHg 72%
    06:00 +21°C° 0 mm 4 mps 750 mmHg 67%
    07:00 +22°C° 0 mm 5 mps 750 mmHg 62%
    08:00 +25°C° 0 mm 5 mps 750 mmHg 56%
    09:00 +27°C° 0 mm 5 mps 750 mmHg 50%
    10:00 +28°C° 0 mm 5 mps 750 mmHg 44%
    11:00 +29°C° 0 mm 4 mps 750 mmHg 41%
    12:00 +30°C° 0 mm 4 mps 750 mmHg 38%
    13:00 +32°C° 0 mm 4 mps 749 mmHg 36%
    14:00 +32°C° 0 mm 4 mps 749 mmHg 35%
    15:00 +32°C° 0 mm 4 mps 749 mmHg 35%
    16:00 +31°C° 0 mm 3 mps 748 mmHg 35%
    17:00 +30°C° 0 mm 3 mps 748 mmHg 42%
    18:00 +28°C° 0 mm 2 mps 748 mmHg 48%
    19:00 +27°C° 0 mm 2 mps 748 mmHg 54%
    20:00 +25°C° 0 mm 2 mps 748 mmHg 61%
    21:00 +24°C° 0 mm 1 mps 748 mmHg 67%
    22:00 +22°C° 0 mm 1 mps 748 mmHg 74%
    23:00 +22°C° 0 mm 1 mps 748 mmHg 76%

    21 July, Saturday

    Time Temperature Precipitation Wind Pressure Humidity
    00:00 +21°C° 0 mm 1 mps 748 mmHg 79%
    01:00 +19°C° 0 mm 0 mps 748 mmHg 82%
    02:00 +18°C° 0 mm 0 mps 748 mmHg 83%
    03:00 +18°C° 0 mm 0 mps 748 mmHg 84%
    04:00 +18°C° 0 mm 0 mps 747 mmHg 85%
    05:00 +21°C° 0 mm 1 mps 747 mmHg 79%
    06:00 +23°C° 0 mm 1 mps 747 mmHg 73%
    07:00 +24°C° 0 mm 1 mps 747 mmHg 67%
    08:00 +26°C° 0 mm 2 mps 747 mmHg 61%
    09:00 +28°C° 0 mm 2 mps 747 mmHg 55%
    10:00 +30°C° 0 mm 2 mps 747 mmHg 49%
    11:00 +31°C° 0 mm 2 mps 747 mmHg 46%
    12:00 +32°C° 0 mm 2 mps 746 mmHg 44%
    13:00 +34°C° 0 mm 2 mps 746 mmHg 41%
    14:00 +32°C° 0.4 mm 2 mps 746 mmHg 45%
    15:00 +31°C° 0.4 mm 2 mps 745 mmHg 48%
    16:00 +31°C° 0.4 mm 2 mps 745 mmHg 52%
    17:00 +29°C° 1.1 mm 2 mps 745 mmHg 58%
    18:00 +27°C° 1.1 mm 3 mps 745 mmHg 65%
    19:00 +26°C° 1.1 mm 3 mps 745 mmHg 72%
    20:00 +24°C° 2.4 mm 3 mps 745 mmHg 77%
    21:00 +22°C° 2.4 mm 4 mps 746 mmHg 82%
    22:00 +21°C° 2.4 mm 4 mps 746 mmHg 88%
    23:00 +20°C° 0.3 mm 4 mps 746 mmHg 87%

    22 July, Sunday

    Time Temperature Precipitation Wind Pressure Humidity
    00:00 +20°C° 0.3 mm 4 mps 746 mmHg 87%
    01:00 +20°C° 0.3 mm 4 mps 746 mmHg 87%
    02:00 +19°C° 0.6 mm 4 mps 746 mmHg 88%
    03:00 +19°C° 0.6 mm 3 mps 746 mmHg 89%
    04:00 +19°C° 0.6 mm 3 mps 745 mmHg 90%
    05:00 +20°C° 0.1 mm 3 mps 745 mmHg 87%
    06:00 +20°C° 0.1 mm 3 mps 745 mmHg 84%
    07:00 +21°C° 0.1 mm 4 mps 745 mmHg 81%
    08:00 +22°C° 0.2 mm 4 mps 745 mmHg 77%
    09:00 +25°C° 0.2 mm 4 mps 745 mmHg 72%
    10:00 +26°C° 0.2 mm 4 mps 745 mmHg 67%
    11:00 +26°C° 0.7 mm 4 mps 745 mmHg 67%
    12:00 +27°C° 0.7 mm 4 mps 745 mmHg 66%
    13:00 +27°C° 0.7 mm 5 mps 745 mmHg 66%
    14:00 +27°C° 2.1 mm 5 mps 745 mmHg 68%
    15:00 +27°C° 2.1 mm 5 mps 745 mmHg 70%
    16:00 +26°C° 2.1 mm 5 mps 744 mmHg 72%
    17:00 +25°C° 0.8 mm 5 mps 745 mmHg 74%
    18:00 +23°C° 0.8 mm 5 mps 745 mmHg 77%
    19:00 +22°C° 0.8 mm 6 mps 745 mmHg 80%
    20:00 +22°C° 0.4 mm 6 mps 745 mmHg 80%
    21:00 +21°C° 0.4 mm 6 mps 745 mmHg 81%
    22:00 +21°C° 0.4 mm 6 mps 746 mmHg 82%
    23:00 +21°C° 0.4 mm 6 mps 746 mmHg 82%

    23 July, Monday

    Time Temperature Precipitation Wind Pressure Humidity
    00:00 +21°C° 0.4 mm 6 mps 746 mmHg 82%
    01:00 +20°C° 0.4 mm 6 mps 746 mmHg 82%
    02:00 +20°C° 0.7 mm 6 mps 746 mmHg 82%
    03:00 +20°C° 0.7 mm 6 mps 746 mmHg 83%
    04:00 +19°C° 0.7 mm 6 mps 747 mmHg 83%
    05:00 +20°C° 0.2 mm 6 mps 747 mmHg 81%
    06:00 +20°C° 0.2 mm 6 mps 747 mmHg 78%
    07:00 +21°C° 0.2 mm 6 mps 748 mmHg 76%
    08:00 +23°C° 0 mm 7 mps 748 mmHg 70%
    09:00 +24°C° 0 mm 7 mps 748 mmHg 65%
    10:00 +27°C° 0 mm 7 mps 748 mmHg 59%
    11:00 +28°C° 0.1 mm 7 mps 748 mmHg 56%
    12:00 +28°C° 0.1 mm 7 mps 748 mmHg 53%
    13:00 +29°C° 0.1 mm 7 mps 748 mmHg 50%
    14:00 +29°C° 0.1 mm 7 mps 748 mmHg 50%
    15:00 +29°C° 0.1 mm 7 mps 748 mmHg 50%
    16:00 +29°C° 0.1 mm 7 mps 748 mmHg 49%
    17:00 +28°C° 0 mm 6 mps 748 mmHg 54%
    18:00 +27°C° 0 mm 5 mps 748 mmHg 58%
    19:00 +26°C° 0 mm 4 mps 748 mmHg 63%
    20:00 +25°C° 0 mm 4 mps 749 mmHg 65%
    21:00 +23°C° 0 mm 4 mps 749 mmHg 68%
    22:00 +22°C° 0 mm 4 mps 749 mmHg 70%
    23:00 +21°C° 0 mm 4 mps 749 mmHg 72%
    Show more